Location: Unspecified
(29.9680°N, 0.0000°E)
Time: 13:40:38
(UTC+00:00)

Explorer 7 - Pass Details

Date: 04 July 2019
Orbit: 485 x 680 km, 50.3° (Epoch: 16 August)

Event Time Altitude Azimuth Distance (km) Brightness Sun altitude
Rises 04:37:16 0° 270° (W) 2,578 - -5.8°
Exits shadow 04:37:57 - 274° (W) 2,354 9.5 -5.7°
Reaches altitude 10° 04:40:14 10° 296° (WNW) 1,725 9.0 -5.3°
Maximum altitude 04:42:28 15° 331° (NNW) 1,482 9.0 -4.9°
Drops below altitude 10° 04:44:47 10° 6° (N) 1,783 10.0 -4.4°
Sets 04:47:57 0° 31° (NNE) 2,723 11.6 -3.8°
